Time,TemperatureF,DewpointF,PressureIn,WindDirection,WindDirectionDegrees,WindSpeedMPH,WindSpeedGustMPH,Humidity,HourlyPrecipIn,Conditions,Clouds,dailyrainin,SoftwareType,DateUTC
2013-02-06 00:06:00,27.6,20.0,32.50,WNW,288,5.0,15.0,72,0.00,,,0.00,weatherlink.com 1.10,2013-02-06 07:06:00,
2013-02-06 00:21:00,27.3,20.0,32.50,WNW,296,6.0,10.0,75,0.00,,,0.00,weatherlink.com 1.10,2013-02-06 07:21:00,
2013-02-06 00:36:00,27.1,20.0,32.50,WNW,303,4.0,8.0,76,0.00,,,0.00,weatherlink.com 1.10,2013-02-06 07:36:00,
2013-02-06 00:52:00,27.2,20.0,32.50,WNW,297,15.0,16.0,75,0.00,,,0.00,weatherlink.com 1.10,2013-02-06 07:52:00,
2013-02-06 01:07:00,26.9,21.0,32.50,WNW,295,6.0,19.0,79,0.00,,,0.00,weatherlink.com 1.10,2013-02-06 08:07:00,
2013-02-06 01:22:00,26.1,22.0,32.50,WNW,292,7.0,10.0,85,0.00,,,0.00,weatherlink.com 1.10,2013-02-06 08:22:00,
2013-02-06 01:37:00,25.7,23.0,32.50,NW,312,3.0,9.0,88,0.00,,,0.00,weatherlink.com 1.10,2013-02-06 08:37:00,
2013-02-06 01:52:00,25.9,23.0,32.50,WSW,254,4.0,8.0,87,0.00,,,0.00,weatherlink.com 1.10,2013-02-06 08:52:00,
2013-02-06 02:07:00,26.4,22.0,32.50,West,280,8.0,9.0,84,0.00,,,0.00,weatherlink.com 1.10,2013-02-06 09:07:00,
2013-02-06 02:22:00,26.6,23.0,32.50,WNW,286,7.0,11.0,85,0.00,,,0.00,weatherlink.com 1.10,2013-02-06 09:22:00,
2013-02-06 02:37:00,26.5,23.0,32.50,West,259,5.0,10.0,85,0.00,,,0.00,weatherlink.com 1.10,2013-02-06 09:37:00,
2013-02-06 02:52:00,25.9,23.0,32.50,WSW,247,7.0,12.0,88,0.00,,,0.00,weatherlink.com 1.10,2013-02-06 09:52:00,
2013-02-06 03:07:00,26.4,23.0,32.50,SW,235,9.0,11.0,85,0.00,,,0.00,weatherlink.com 1.10,2013-02-06 10:07:00,
2013-02-06 03:22:00,26.1,22.0,32.50,South,188,8.0,14.0,83,0.00,,,0.00,weatherlink.com 1.10,2013-02-06 10:22:00,
2013-02-06 03:37:00,26.1,23.0,32.50,SW,232,13.0,15.0,86,0.00,,,0.00,weatherlink.com 1.10,2013-02-06 10:37:00,
2013-02-06 03:52:00,25.8,23.0,32.50,SSW,198,10.0,16.0,89,0.00,,,0.00,weatherlink.com 1.10,2013-02-06 10:52:00,
2013-02-06 04:07:00,25.8,23.0,32.50,South,190,11.0,17.0,90,0.00,,,0.00,weatherlink.com 1.10,2013-02-06 11:07:00,
2013-02-06 04:22:00,25.1,23.0,32.50,SSW,192,8.0,11.0,93,0.00,,,0.00,weatherlink.com 1.10,2013-02-06 11:22:00,
2013-02-06 04:37:00,25.3,24.0,32.50,South,191,10.0,17.0,93,0.00,,,0.00,weatherlink.com 1.10,2013-02-06 11:37:00,
2013-02-06 04:52:00,25.7,24.0,32.50,South,173,10.0,15.0,93,0.00,,,0.00,weatherlink.com 1.10,2013-02-06 11:52:00,
2013-02-06 05:07:00,25.6,24.0,32.50,SSW,194,7.0,13.0,93,0.00,,,0.00,weatherlink.com 1.10,2013-02-06 12:07:00,
2013-02-06 05:22:00,25.6,24.0,32.50,South,171,8.0,11.0,93,0.00,,,0.00,weatherlink.com 1.10,2013-02-06 12:22:00,
2013-02-06 05:37:00,25.8,24.0,32.50,South,171,5.0,10.0,93,0.00,,,0.00,weatherlink.com 1.10,2013-02-06 12:37:00,
2013-02-06 05:52:00,25.8,24.0,32.50,SW,226,10.0,15.0,93,0.00,,,0.00,weatherlink.com 1.10,2013-02-06 12:52:00,
2013-02-06 06:07:00,25.8,24.0,32.50,SW,225,9.0,12.0,93,0.00,,,0.00,weatherlink.com 1.10,2013-02-06 13:07:00,
2013-02-06 06:22:00,25.7,24.0,32.50,SSW,207,12.0,12.0,93,0.00,,,0.00,weatherlink.com 1.10,2013-02-06 13:22:00,
2013-02-06 06:37:00,25.6,24.0,32.50,SSW,213,8.0,10.0,93,0.00,,,0.00,weatherlink.com 1.10,2013-02-06 13:37:00,
2013-02-06 06:52:00,25.3,24.0,32.50,SW,221,8.0,13.0,93,0.00,,,0.00,weatherlink.com 1.10,2013-02-06 13:52:00,
2013-02-06 07:07:00,25.3,24.0,32.50,SW,223,9.0,12.0,93,0.00,,,0.00,weatherlink.com 1.10,2013-02-06 14:07:00,
2013-02-06 07:22:00,25.2,24.0,32.50,SW,223,5.0,9.0,93,0.00,,,0.00,weatherlink.com 1.10,2013-02-06 14:22:00,
2013-02-06 07:37:00,24.7,23.0,32.50,SW,223,10.0,10.0,93,0.00,,,0.00,weatherlink.com 1.10,2013-02-06 14:37:00,
2013-02-06 07:52:00,25.0,23.0,32.50,SW,223,8.0,12.0,93,0.00,,,0.00,weatherlink.com 1.10,2013-02-06 14:52:00,
2013-02-06 08:07:00,25.1,23.0,32.50,SW,223,9.0,12.0,93,0.00,,,0.00,weatherlink.com 1.10,2013-02-06 15:07:00,
2013-02-06 08:22:00,24.7,23.0,32.50,SW,223,8.0,8.0,93,0.00,,,0.00,weatherlink.com 1.10,2013-02-06 15:22:00,
2013-02-06 08:37:00,25.1,23.0,32.50,SW,223,5.0,8.0,93,0.00,,,0.00,weatherlink.com 1.10,2013-02-06 15:37:00,
2013-02-06 08:52:00,24.9,23.0,32.50,SW,223,5.0,7.0,93,0.00,,,0.00,weatherlink.com 1.10,2013-02-06 15:52:00,
2013-02-06 09:07:00,25.3,24.0,32.50,SW,223,5.0,8.0,93,0.00,,,0.00,weatherlink.com 1.10,2013-02-06 16:07:00,
2013-02-06 09:22:00,25.2,24.0,32.50,SW,223,7.0,8.0,93,0.00,,,0.00,weatherlink.com 1.10,2013-02-06 16:22:00,
2013-02-06 09:37:00,25.1,23.0,32.50,SW,223,6.0,13.0,93,0.00,,,0.00,weatherlink.com 1.10,2013-02-06 16:37:00,
2013-02-06 09:52:00,25.2,24.0,32.50,SW,223,0.0,9.0,93,0.00,,,0.00,weatherlink.com 1.10,2013-02-06 16:52:00,
2013-02-06 10:07:00,25.5,24.0,32.50,SW,223,5.0,10.0,93,0.00,,,0.00,weatherlink.com 1.10,2013-02-06 17:07:00,
2013-02-06 10:22:00,25.6,24.0,32.50,SW,223,6.0,10.0,93,0.00,,,0.00,weatherlink.com 1.10,2013-02-06 17:22:00,
2013-02-06 10:37:00,25.4,24.0,32.50,SW,223,10.0,12.0,93,0.00,,,0.00,weatherlink.com 1.10,2013-02-06 17:37:00,
2013-02-06 10:52:00,25.5,24.0,32.50,SW,223,8.0,12.0,93,0.00,,,0.00,weatherlink.com 1.10,2013-02-06 17:52:00,
2013-02-06 11:07:00,25.8,24.0,32.50,SW,223,8.0,14.0,93,0.00,,,0.00,weatherlink.com 1.10,2013-02-06 18:07:00,
2013-02-06 11:22:00,25.6,24.0,32.50,SW,223,9.0,14.0,93,0.00,,,0.00,weatherlink.com 1.10,2013-02-06 18:22:00,
2013-02-06 11:37:00,25.8,24.0,32.50,SW,223,3.0,9.0,93,0.00,,,0.00,weatherlink.com 1.10,2013-02-06 18:37:00,
2013-02-06 11:52:00,25.8,24.0,32.50,SW,223,2.0,8.0,93,0.00,,,0.00,weatherlink.com 1.10,2013-02-06 18:52:00,
2013-02-06 12:07:00,26.7,25.0,32.50,SW,223,5.0,6.0,94,0.00,,,0.00,weatherlink.com 1.10,2013-02-06 19:07:00,
2013-02-06 12:22:00,26.9,25.0,32.50,SW,222,1.0,6.0,93,0.00,,,0.00,weatherlink.com 1.10,2013-02-06 19:22:00,
2013-02-06 12:37:00,28.0,27.0,32.50,SW,222,0.0,0.0,94,0.00,,,0.00,weatherlink.com 1.10,2013-02-06 19:37:00,
2013-02-06 12:52:00,27.2,26.0,32.50,SW,221,0.0,0.0,94,0.00,,,0.00,weatherlink.com 1.10,2013-02-06 19:52:00,
2013-02-06 13:07:00,27.0,25.0,32.50,SW,221,0.0,0.0,93,0.00,,,0.00,weatherlink.com 1.10,2013-02-06 20:07:00,
2013-02-06 13:22:00,26.5,25.0,32.50,SW,221,0.0,0.0,93,0.00,,,0.00,weatherlink.com 1.10,2013-02-06 20:22:00,
2013-02-06 13:37:00,26.5,25.0,32.50,SW,221,0.0,0.0,93,0.00,,,0.00,weatherlink.com 1.10,2013-02-06 20:37:00,
2013-02-06 13:52:00,27.3,26.0,32.50,SW,221,0.0,0.0,94,0.00,,,0.00,weatherlink.com 1.10,2013-02-06 20:52:00,
2013-02-06 14:07:00,26.7,25.0,32.50,SW,221,0.0,0.0,94,0.00,,,0.00,weatherlink.com 1.10,2013-02-06 21:07:00,
2013-02-06 14:22:00,25.6,24.0,32.50,SW,222,0.0,0.0,93,0.00,,,0.00,weatherlink.com 1.10,2013-02-06 21:22:00,
2013-02-06 14:37:00,25.4,24.0,32.50,SW,222,0.0,0.0,93,0.00,,,0.00,weatherlink.com 1.10,2013-02-06 21:37:00,
2013-02-06 14:52:00,25.6,24.0,32.50,SW,222,0.0,0.0,94,0.00,,,0.00,weatherlink.com 1.10,2013-02-06 21:52:00,
2013-02-06 15:07:00,26.5,25.0,32.50,SW,222,0.0,0.0,93,0.00,,,0.00,weatherlink.com 1.10,2013-02-06 22:07:00,
2013-02-06 15:22:00,27.9,26.0,32.50,SW,221,0.0,0.0,94,0.00,,,0.00,weatherlink.com 1.10,2013-02-06 22:22:00,
2013-02-06 15:37:00,27.6,26.0,32.50,SW,221,0.0,0.0,93,0.00,,,0.00,weatherlink.com 1.10,2013-02-06 22:37:00,
2013-02-06 15:52:00,27.4,26.0,32.50,SW,222,0.0,0.0,93,0.00,,,0.00,weatherlink.com 1.10,2013-02-06 22:52:00,
2013-02-06 16:08:00,27.7,26.0,32.50,SW,222,0.0,0.0,94,0.00,,,0.00,weatherlink.com 1.10,2013-02-06 23:08:00,
2013-02-06 16:23:00,27.6,26.0,32.50,SW,222,0.0,0.0,93,0.00,,,0.00,weatherlink.com 1.10,2013-02-06 23:23:00,
2013-02-06 16:38:00,27.4,26.0,32.50,SW,222,0.0,0.0,93,0.00,,,0.00,weatherlink.com 1.10,2013-02-06 23:38:00,
2013-02-06 16:53:00,27.2,26.0,32.50,SW,222,0.0,0.0,93,0.00,,,0.00,weatherlink.com 1.10,2013-02-06 23:53:00,
2013-02-06 17:08:00,26.0,24.0,32.50,SW,222,0.0,0.0,91,0.00,,,0.00,weatherlink.com 1.10,2013-02-07 00:08:00,
2013-02-06 17:23:00,25.5,23.0,32.50,SW,222,0.0,0.0,91,0.00,,,0.00,weatherlink.com 1.10,2013-02-07 00:23:00,
2013-02-06 17:38:00,25.3,23.0,32.50,SW,222,0.0,0.0,90,0.00,,,0.00,weatherlink.com 1.10,2013-02-07 00:38:00,
2013-02-06 17:53:00,24.9,22.0,32.50,SW,222,0.0,0.0,90,0.00,,,0.00,weatherlink.com 1.10,2013-02-07 00:53:00,
2013-02-06 18:08:00,24.6,22.0,32.50,SW,222,0.0,0.0,90,0.00,,,0.00,weatherlink.com 1.10,2013-02-07 01:08:00,
2013-02-06 18:23:00,24.6,22.0,32.50,SW,222,0.0,0.0,90,0.00,,,0.00,weatherlink.com 1.10,2013-02-07 01:23:00,
2013-02-06 18:38:00,24.7,22.0,32.50,SW,222,0.0,0.0,90,0.00,,,0.00,weatherlink.com 1.10,2013-02-07 01:38:00,
2013-02-06 18:53:00,24.5,22.0,32.50,SW,222,0.0,0.0,90,0.00,,,0.00,weatherlink.com 1.10,2013-02-07 01:53:00,
2013-02-06 19:08:00,24.4,22.0,32.50,SW,222,0.0,0.0,90,0.00,,,0.00,weatherlink.com 1.10,2013-02-07 02:08:00,
2013-02-06 19:23:00,24.4,22.0,32.50,SW,222,0.0,0.0,91,0.00,,,0.00,weatherlink.com 1.10,2013-02-07 02:23:00,
2013-02-06 19:38:00,25.1,22.0,32.50,SW,222,0.0,0.0,88,0.00,,,0.00,weatherlink.com 1.10,2013-02-07 02:38:00,
2013-02-06 19:53:00,24.2,22.0,32.50,SW,221,0.0,0.0,91,0.00,,,0.00,weatherlink.com 1.10,2013-02-07 02:53:00,
2013-02-06 20:08:00,24.3,22.0,32.50,SW,221,0.0,0.0,92,0.00,,,0.00,weatherlink.com 1.10,2013-02-07 03:08:00,
2013-02-06 20:23:00,24.2,22.0,32.50,SW,221,0.0,0.0,92,0.00,,,0.00,weatherlink.com 1.10,2013-02-07 03:23:00,
2013-02-06 20:38:00,24.7,22.0,32.50,SW,221,0.0,0.0,90,0.00,,,0.00,weatherlink.com 1.10,2013-02-07 03:38:00,
2013-02-06 20:53:00,24.7,22.0,32.50,SW,221,0.0,0.0,89,0.00,,,0.00,weatherlink.com 1.10,2013-02-07 03:53:00,
2013-02-06 21:08:00,24.2,22.0,32.50,SW,221,0.0,0.0,91,0.00,,,0.00,weatherlink.com 1.10,2013-02-07 04:08:00,
2013-02-06 21:23:00,24.2,22.0,32.50,SW,221,3.0,5.0,91,0.00,,,0.00,weatherlink.com 1.10,2013-02-07 04:23:00,
2013-02-06 21:38:00,24.7,21.0,32.50,SW,221,5.0,8.0,87,0.00,,,0.00,weatherlink.com 1.10,2013-02-07 04:38:00,
2013-02-06 21:53:00,24.5,21.0,32.50,SW,221,7.0,9.0,85,0.00,,,0.00,weatherlink.com 1.10,2013-02-07 04:53:00,
2013-02-06 22:08:00,24.0,20.0,32.50,SW,221,7.0,8.0,86,0.00,,,0.00,weatherlink.com 1.10,2013-02-07 05:08:00,
2013-02-06 22:23:00,23.8,19.0,32.50,SW,221,7.0,9.0,83,0.00,,,0.00,weatherlink.com 1.10,2013-02-07 05:23:00,
2013-02-06 22:38:00,23.7,20.0,32.50,SW,221,7.0,9.0,85,0.00,,,0.00,weatherlink.com 1.10,2013-02-07 05:38:00,
2013-02-06 22:53:00,23.5,19.0,32.50,SW,220,7.0,9.0,84,0.00,,,0.00,weatherlink.com 1.10,2013-02-07 05:53:00,
2013-02-06 23:08:00,23.3,20.0,32.50,SSE,160,8.0,11.0,85,0.00,,,0.00,weatherlink.com 1.10,2013-02-07 06:08:00,
2013-02-06 23:23:00,23.3,20.0,32.50,SSE,157,9.0,10.0,86,0.00,,,0.00,weatherlink.com 1.10,2013-02-07 06:23:00,
2013-02-06 23:38:00,23.3,20.0,32.50,SE,144,8.0,11.0,85,0.00,,,0.00,weatherlink.com 1.10,2013-02-07 06:38:00,
2013-02-06 23:53:00,23.3,20.0,32.50,SE,141,11.0,12.0,85,0.00,,,0.00,weatherlink.com 1.10,2013-02-07 06:53:00,